FW5729 Weather Reports


time (UTC)temp
C
wind
direction
speed
KPH
gust
KPH
rain 1hr
cm
rain 24hr
cm
rain mn
cm
humidity
%
barometer
mb
20260510000034 31 0 0.0 6.4 0.00 0.03 0.03 48 1007.6
20260509234539 31 70 0.0 3.2 0.00 0.03 0.03 47 1007.6
20260509233034 31 0 1.6 6.4 0.00 0.03 0.03 49 1007.4
20260509231539 31 0 0.0 3.2 0.00 0.03 0.03 49 1007.4
20260509230040 31 0 1.6 8.0 0.00 0.03 0.03 49 1007.4
20260509224549 32 49 0.0 4.8 0.00 0.03 0.03 45 1007.3
20260509223034 33 0 0.0 4.8 0.00 0.03 0.03 48 1007.3
20260509221535 33 0 0.0 1.6 0.00 0.03 0.03 41 1007.2
20260509220040 33 65 0.0 4.8 0.00 0.03 0.03 44 1007.2
20260509214539 32 0 0.0 8.0 0.00 0.03 0.03 43 1007.5
20260509213033 32 47 0.0 8.0 0.00 0.03 0.03 44 1007.6
20260509211533 34 0 0.0 1.6 0.00 0.03 0.03 42 1007.7
20260509210041 33 227 1.6 9.7 0.00 0.03 0.03 42 1007.7
20260509204537 33 0 0.0 6.4 0.00 0.03 0.03 45 1008.2
20260509203037 33 63 0.0 4.8 0.00 0.03 0.03 49 1008.7
20260509201544 32 0 0.0 1.6 0.00 0.03 0.03 50 1008.7
20260509200033 31 0 0.0 4.8 0.00 0.03 0.03 50 1008.8
20260509194533 32 0 0.0 11.3 0.00 0.03 0.03 49 1008.8
20260509193032 31 0 0.0 8.0 0.00 0.03 0.03 56 1009.0
20260509191539 31 0 0.0 4.8 0.00 0.03 0.03 57 1009.2
20260509190035 31 0 1.6 8.0 0.00 0.03 0.03 55 1009.6
20260509184534 32 0 0.0 4.8 0.00 0.03 0.03 56 1009.4
20260509183040 31 0 0.0 1.6 0.00 0.03 0.03 55 1010.0
20260509181534 30 0 0.0 6.4 0.00 0.03 0.03 61 1010.1
20260509180042 30 0 0.0 3.2 0.00 0.03 0.03 61 1010.7
20260509174538 30 53 0.0 1.6 0.00 0.03 0.03 64 1010.6
20260509173033 29 0 0.0 8.0 0.00 0.03 0.03 65 1011.0
20260509171546 29 0 0.0 3.2 0.00 0.03 0.03 66 1010.8
20260509170038 28 0 0.0 1.6 0.00 0.03 0.03 69 1010.8
20260509164548 28 60 0.0 1.6 0.00 0.03 0.03 69 1011.1
20260509163038 28 0 0.0 4.8 0.00 0.03 0.03 72 1011.0
20260509161536 27 219 0.0 8.0 0.00 0.03 0.03 73 1010.9
20260509160033 27 0 0.0 4.8 0.00 0.03 0.03 77 1010.9
20260509154538 27 0 1.6 17.7 0.00 0.03 0.03 76 1010.9
20260509153039 26 0 0.0 8.0 0.00 0.03 0.03 79 1010.8
20260509151538 26 0 0.0 4.8 0.00 0.03 0.03 80 1010.6
20260509150036 26 0 0.0 6.4 0.00 0.03 0.03 80 1010.5
20260509144534 25 0 0.0 4.8 0.00 0.03 0.03 83 1010.5
20260509143035 25 0 0.0 0.0 0.00 0.03 0.03 86 1010.4
20260509141534 24 0 0.0 8.0 0.00 0.03 0.03 88 1009.9
20260509140041 23 0 0.0 1.6 0.00 0.03 0.03 88 1009.8
20260509134538 23 0 0.0 6.4 0.00 0.03 0.03 89 1009.6
20260509133033 23 0 0.0 8.0 0.03 0.03 0.03 91 1009.7
20260509131545 22 216 0.0 3.2 0.03 0.03 0.03 95 1010.1
20260509130038 21 0 0.0 0.0 0.03 0.03 0.03 96 1010.4
20260509124531 21 0 0.0 0.0 0.03 0.03 0.03 97 1010.6
20260509123033 21 0 0.0 0.0 0.00 0.00 0.00 97 1010.3
20260509121533 21 0 0.0 0.0 0.00 0.00 0.00 97 1010.3
20260509120036 21 0 0.0 0.0 0.00 0.00 0.00 97 1010.5
20260509114536 21 0 0.0 0.0 0.00 0.00 0.00 97 1010.7
20260509113042 21 0 0.0 0.0 0.00 0.00 0.00 97 1010.7
20260509111535 21 0 0.0 0.0 0.00 0.00 0.00 97 1011.3
20260509110032 21 0 0.0 0.0 0.00 0.00 0.00 97 1011.5
20260509104542 21 0 0.0 3.2 0.00 0.00 0.00 97 1011.4
20260509103034 21 0 0.0 0.0 0.00 0.00 0.00 96 1011.4
20260509101546 21 0 0.0 0.0 0.00 0.00 0.00 96 1011.2
20260509100034 21 0 1.6 3.2 0.00 0.00 0.00 96 1010.8
20260509094535 21 0 0.0 0.0 0.00 0.00 0.00 96 1010.2
20260509093035 21 0 0.0 0.0 0.00 0.00 0.00 96 1009.9
20260509091534 21 0 0.0 0.0 0.00 0.00 0.00 96 1009.8
20260509090032 21 0 0.0 0.0 0.00 0.00 0.00 96 1009.9
20260509084539 21 0 0.0 0.0 0.00 0.00 0.00 96 1009.9
20260509083041 21 0 0.0 0.0 0.00 0.00 0.00 96 1010.1
20260509081534 21 0 0.0 0.0 0.00 0.00 0.00 95 1010.4
20260509080037 21 0 0.0 0.0 0.00 0.00 0.00 95 1010.4
20260509074533 21 0 0.0 0.0 0.00 0.00 0.00 94 1010.1
20260509073037 21 0 0.0 0.0 0.00 0.00 0.00 94 1010.2
20260509071532 21 0 0.0 4.8 0.00 0.00 0.00 94 1010.6
20260509070035 21 0 0.0 0.0 0.00 0.00 0.00 94 1010.7
20260509064540 21 0 0.0 0.0 0.00 0.00 0.00 94 1010.3
20260509063032 21 0 0.0 0.0 0.00 0.00 0.00 93 1010.2
20260509061532 21 0 0.0 0.0 0.00 0.00 0.00 94 1010.7
20260509060033 21 0 0.0 1.6 0.00 0.00 0.00 94 1010.1
20260509054536 21 0 0.0 0.0 0.00 0.00 0.00 94 1009.8
20260509053032 21 0 0.0 3.2 0.00 0.00 0.00 94 1009.9
20260509051536 21 0 0.0 3.2 0.00 0.00 0.00 93 1009.4
20260509050039 21 0 0.0 0.0 0.00 0.00 0.00 93 1009.0
20260509044534 21 0 0.0 0.0 0.00 0.00 0.00 92 1008.9
20260509043033 21 0 0.0 0.0 0.00 0.00 0.00 91 1009.2
20260509041532 21 0 0.0 0.0 0.00 0.00 0.00 91 1009.6
20260509040043 21 0 0.0 1.6 0.00 0.00 0.00 90 1009.4
20260509034549 21 0 0.0 3.2 0.00 0.00 0.00 90 1009.2
20260509033034 21 0 0.0 1.6 0.00 0.00 0.00 89 1009.3
20260509031535 22 0 0.0 3.2 0.00 0.00 0.00 88 1009.1
20260509030040 22 0 0.0 1.6 0.00 0.00 0.00 87 1009.3
20260509024540 22 0 0.0 3.2 0.00 0.00 0.00 86 1009.1
20260509023035 22 0 0.0 1.6 0.00 0.00 0.00 85 1008.9
20260509021535 23 0 0.0 0.0 0.00 0.00 0.00 84 1008.2
20260509020032 23 0 0.0 3.2 0.00 0.00 0.00 83 1008.1
20260509014533 23 0 0.0 8.0 0.00 0.00 0.00 82 1008.1
20260509013033 23 0 1.6 6.4 0.00 0.00 0.00 80 1007.8
20260509011532 24 0 1.6 9.7 0.00 0.00 0.00 79 1007.8
20260509010037 24 215 0.0 4.8 0.00 0.00 0.00 79 1007.7
20260509004535 25 0 0.0 1.6 0.00 0.00 0.00 78 1008.0
20260509003032 25 0 0.0 1.6 0.00 0.00 0.00 77 1007.9
20260509001538 25 0 0.0 3.2 0.00 0.00 0.00 77 1008.0